Home > Weather > Södertälje > Past weeks

Flag for Sweden Past Weather in Södertälje, Sweden — Yesterday and Last 2 Weeks

Now
68 °F

Passing clouds.


Feels Like: 68 °F
Forecast: 51 / 71 °F
Wind: 8 mph from South

Location: Stockholm Bromma Airport

Current Time: Jun 29, 2016 at 2:55:36 PM

Latest Report: Jun 29, 2016 at 2:20 PM


Visibility: N/A

Pressure: 29.89 "Hg

Humidity: 40%

Dew Point: 43 °F

Location of SödertäljeLocation

Past Weather in Södertälje — Graph

°F

Södertälje Temperature Yesterday

Maximum temperature yesterday: 72 °F (at 2:50 PM)
Minimum temperature yesterday: 54 °F (at 12:50 AM)
Average temperature yesterday: 63 °F

High & Low Weather Summary for the Past Weeks

 TemperatureHumidityPressure
High82 °F (Jun 25, 3:20 PM)100% (Jun 16, 11:50 PM)30.18 "Hg (Jun 16, 11:50 PM)
Low48 °F (Jun 15, 12:50 AM)26% (Jun 14, 1:20 PM)29.30 "Hg (Jun 18, 3:50 AM)
Average63 °F73%29.84 "Hg
* Reported Jun 14 1:20 PM — Jun 29 1:20 PM, Södertälje, Weather by CustomWeather, © 2016

Note: Actual official high and low records may vary slightly from our data, if they occured in-between our weather recording intervals... More about our weather records

Advertising

Södertälje Weather History for the Previous 24 Hours

Scroll right to see more
 ConditionsComfort  
Time TempWeatherWind HumidityBarometerVisibility
1:20 PM
Wed, Jun 29
68 °FSunny.9 mph38%29.89 "Hg10 mi
12:50 PM68 °FPassing clouds.6 mph40%29.89 "HgN/A
12:20 PM68 °FPassing clouds.7 mph43%29.89 "HgN/A
11:50 AM68 °FSunny.8 mph46%29.89 "Hg10 mi
11:20 AM66 °FPassing clouds.7 mph46%29.92 "HgN/A
10:20 AM66 °FPassing clouds.6 mph49%29.92 "HgN/A
9:50 AM64 °FPassing clouds.8 mph56%29.92 "HgN/A
9:20 AM64 °FSunny.7 mph56%29.92 "Hg10 mi
8:50 AM63 °FPassing clouds.6 mph59%29.92 "HgN/A
8:20 AM63 °FPassing clouds.6 mph64%29.92 "HgN/A
7:50 AM61 °FSunny.6 mph68%29.92 "Hg10 mi
7:20 AM61 °FSunny.6 mph68%29.92 "Hg10 mi
6:50 AM59 °FSunny.6 mph68%29.92 "Hg10 mi
6:20 AM59 °FSunny.5 mph68%29.92 "Hg10 mi
5:50 AM57 °FSunny.6 mph72%29.92 "Hg10 mi
5:20 AM55 °FCool.6 mph77%29.92 "HgN/A
4:50 AM54 °FCool.5 mph82%29.92 "HgN/A
4:20 AM52 °FCool.6 mph88%29.92 "HgN/A
3:50 AM52 °FCool.3 mph88%29.92 "HgN/A
3:20 AM50 °FCool.3 mph94%29.92 "HgN/A
2:50 AM52 °FCool.2 mph88%29.92 "HgN/A
2:20 AM52 °FCool.3 mph88%29.92 "HgN/A
1:50 AM55 °FCool.3 mph77%29.92 "HgN/A
1:20 AM54 °FCool.5 mph82%29.92 "HgN/A
12:20 AM57 °FPassing clouds.5 mph72%29.92 "HgN/A
11:50 PM
Tue, Jun 28
55 °FPassing clouds.5 mph77%29.89 "HgN/A
11:20 PM55 °FCool.3 mph77%29.89 "HgN/A
10:50 PM57 °FCool.5 mph67%29.89 "HgN/A
10:20 PM57 °FCool.3 mph67%29.89 "HgN/A
9:50 PM59 °FSunny.3 mph63%29.89 "Hg10 mi
9:20 PM61 °FSunny.3 mph59%29.89 "Hg10 mi
8:50 PM64 °FSunny.5 mph49%29.86 "Hg10 mi
8:20 PM66 °FSunny.7 mph43%29.86 "Hg10 mi
7:50 PM68 °FSunny.8 mph40%29.86 "Hg10 mi
7:20 PM68 °FSunny.9 mph40%29.86 "Hg10 mi
6:50 PM70 °FSunny.13 mph38%29.86 "Hg10 mi
6:20 PM70 °FSunny.12 mph35%29.86 "Hg10 mi
5:50 PM68 °FSunny.14 mph40%29.86 "Hg10 mi
5:20 PM70 °FPassing clouds.13 mph38%29.86 "HgN/A
4:50 PM70 °FSunny.14 mph40%29.86 "Hg10 mi
4:20 PM72 °FPassing clouds.10 mph41%29.86 "HgN/A
3:50 PM72 °FSunny.12 mph38%29.86 "Hg10 mi
3:20 PM72 °FSunny.12 mph44%29.86 "Hg10 mi
2:50 PM72 °FPassing clouds.9 mph44%29.86 "HgN/A
2:20 PM70 °FScattered clouds.9 mph53%29.86 "HgN/A
Weather by CustomWeather, © 2016

See weather overviewHow to use our weather pages